User: anonymous   Login
Location: Unspecified
(0.0000°N, 0.0000°E)
Time: 11:22:01
(UTC+02:00)
Language:

Cosmos 407 Rocket - Orbit

View from above orbital plane
View from above orbital plane
View from above satellite
View from above satellite

Ground track
Ground track

The orbit data is extracted from the following two-line orbital elements,

1 05175U 71035B   15210.99081453  .00000023  00000-0  16337-4 0  9991
2 05175 074.0475 035.3328 0029325 053.7482 306.6375 14.37712752316044
Epoch (UTC): 29 July 2015 23:46:46
Eccentricity: 0.0029325
inclination: 74.0475°
perigee height: 745 km
apogee height: 787 km
right ascension of ascending node: 35.3328°
argument of perigee: 53.7482°
revolutions per day: 14.37712752
mean anomaly at epoch: 306.6375°
orbit number at epoch: 31604

The dashed part of the orbit path shows where the satellite is in the earth's shadow,  

DLR